COSMOS 1275 DEB, 42198

Orbit data source: Space-Track

COSMOS 1275 DEB, 42198 is space debris in LEO originally from a launch on Thu, 04 Jun 1981 UTC launched from the Plesetsk Missile And Space Complex (PKMTR). Debris objects in space refer to the collection of defunct objects orbiting the Earth. Examples of debris include non-operational satellites, rocket bodies, and fragments generated from explosions, collisions, or faulty payload assembly.

Loading next visibility...
Identifier
42198, 1981-053TN
Orbit
LEO
Country
Flag of CISCIS
Related business
Manufacturer
Unknown
Mission
Spacecraft
Bus & Motor
Unknown
Mass
Unknown
Launch date (UTC)
1981-06-04 (45 years ago)
Launch vehicle
Unknown
Launch site
Plesetsk Missile And Space Complex (PKMTR)
Object type
Payload
Rocket body
Debris
Shape & HBR
Unknown shape, 0.1 m
Radar Cross Section
Small (<0.1 m²)

Expand to show TLE details & history
Last TLE update: 2 weeks ago

TLE from 2 weeks ago
0 COSMOS 1275 DEB
1 42198U 81053TN  26052.16942938  .00001159  00000-0  90813-3 0  9998
2 42198  82.8048   7.0897 0039641 335.3403  24.5865 13.90889838620578
Epoch: 2026-02-21T04:03Z
TLE epoch observation values (Epoch: 2026-02-21T04:03:58.698Z)
Latitude
-0.00002°
Longitude
154.99925°
Altitude
902.12 km
Speed
7.414 km/s
True Right ascension
00h 28m 21s
True Declination
0° 00' 00"
Sunlit
Object was in daylight at epoch
Visualization orbit readout
Latitude
Unknown
Longitude
Unknown
Altitude
Unknown
Speed
Unknown
Apparent Right ascension
Unknown
Apparent Declination
Unknown
Sunlit
N/A
Visualization observer readout
Local Sidereal Time
00:02:45
Azimuth
Unknown
Elevation
Unknown
Doppler factor
Unknown
Orbital elements
Apogee altitude
951.587 km
Perigee altitude
893.705 km
Semi-major axis
7,300.783 km
Eccentricity
0.00396
Inclination
82.8048°
RAAN
7.0897°
Arg. of periapsis
335.3403°
True anomaly
24.77635°
Mean anomaly
24.5865°
Eccentric anomaly
24.68134°
Mean motion
3.47928 °/min
Orbital period
103.47 mins
BSTAR
0.00090813
Loading maneuver chart data...
Computing Atmospheric mass density...

Documentation

Showing up to 5 results
|